User: anonymous   Login
Location: Azul
(36.7830°S, 59.8500°W)
Time: 09:44:30
(UTC-03:00)
Language:

EO-79 - Orbit

View from above orbital plane
View from above orbital plane
View from above satellite
View from above satellite

Ground track
Ground track

The orbit data is extracted from the following two-line orbital elements,

1 40025U 14033R   21295.04865171  .00000664  00000-0  75499-4 0  9997
2 40025  97.9380 226.0983 0013567 118.4399 241.8187 14.89591408398770
Epoch (UTC): 22 October 2021 01:10:03
Eccentricity: 0.0013567
inclination: 97.9380°
perigee height: 590 km
apogee height: 608 km
right ascension of ascending node: 226.0983°
argument of perigee: 118.4399°
revolutions per day: 14.89591408
mean anomaly at epoch: 241.8187°
orbit number at epoch: 39877

The dashed part of the orbit path shows where the satellite is in the earth's shadow,  

DLR